^^
Datos históricos de la estación: Murcia-Puente Tocinos
Diario Informe para Abril 12, 2019 Unidades:  Métrico    Inglés   Ambas
Diario Semanal Mensual Anual Configurable
  Máximo: Mínimo: Media:
Temperatura: 22.8 °C 12.4 °C 17 °C
Punto de rocio: 11.3 °C -1.4 °C 2.9 °C
Humedad: 78% 20% 41%
Velocidad viento: 22.5km/h 0.0km/h 10.4km/h
Racha viento: 38.9km/h - -
Viento- - SSW
Presión: 1016.0 hPa 1012.9 hPa -
Precipitación: 0.0 mm    
Historical Graphs
 
 
Tabla de datos para Abril 12, 2019
Hora Temperatura Punto de rocio Presión Viento Velocidad viento Racha viento Humedad Intensidad lluvia(por hora) Nubes
00:00 16.8 °C 1.2 °C 1014.7 hPa SW 3.2 km/h 9.7 km/h 35% 0.0 mm CLR
00:05 16.7 °C 1.6 °C 1014.9 hPa WSW 3.9 km/h 3.7 km/h 36% 0.0 mm CLR
00:10 16.4 °C 1.3 °C 1014.9 hPa WSW 2.9 km/h 5.6 km/h 36% 0.0 mm CLR
00:15 16.4 °C 1.7 °C 1014.9 hPa WSW 2.9 km/h 5.6 km/h 37% 0.0 mm CLR
00:20 16.2 °C 1.5 °C 1015.0 hPa WSW 3.2 km/h 3.7 km/h 37% 0.0 mm CLR
00:25 16.1 °C 1.4 °C 1015.0 hPa WSW 3.2 km/h 4.7 km/h 37% 0.0 mm CLR
00:30 15.9 °C 1.6 °C 1015.0 hPa WSW 3.2 km/h 7.4 km/h 38% 0.0 mm CLR
00:35 15.8 °C 1.5 °C 1015.0 hPa WSW 3.2 km/h 7.4 km/h 38% 0.0 mm CLR
00:40 15.7 °C 1.8 °C 1015.0 hPa SW 5.0 km/h 7.6 km/h 39% 0.0 mm CLR
00:45 15.6 °C 1.7 °C 1015.0 hPa SW 5.0 km/h 9.5 km/h 39% 0.0 mm CLR
00:50 15.6 °C 1.3 °C 1014.8 hPa SW 6.4 km/h 7.4 km/h 38% 0.0 mm CLR
00:55 15.6 °C 1.7 °C 1014.8 hPa WSW 6.4 km/h 7.4 km/h 39% 0.0 mm CLR
01:00 15.6 °C 1.3 °C 1014.8 hPa WSW 4.8 km/h 9.7 km/h 38% 0.0 mm CLR
01:05 15.5 °C 1.6 °C 1014.8 hPa WSW 5.0 km/h 7.4 km/h 39% 0.0 mm CLR
01:10 15.4 °C 1.5 °C 1014.8 hPa WSW 5.0 km/h 9.3 km/h 39% 0.0 mm CLR
01:15 15.3 °C 1.1 °C 1014.8 hPa WSW 5.0 km/h 9.3 km/h 38% 0.0 mm CLR
01:20 15.3 °C 1.1 °C 1014.9 hPa WSW 5.8 km/h 7.4 km/h 38% 0.0 mm CLR
01:25 15.4 °C 1.1 °C 1014.9 hPa WSW 5.8 km/h 7.4 km/h 38% 0.0 mm CLR
01:30 15.4 °C 1.1 °C 1014.9 hPa WSW 5.0 km/h 5.8 km/h 38% 0.0 mm CLR
01:35 15.4 °C 1.1 °C 1015.1 hPa SW 5.0 km/h 5.0 km/h 38% 0.0 mm CLR
01:40 15.5 °C 0.8 °C 1015.1 hPa SSW 4.7 km/h 9.3 km/h 37% 0.0 mm CLR
01:45 15.6 °C 0.9 °C 1015.1 hPa West 4.7 km/h 7.4 km/h 37% 0.0 mm CLR
01:50 15.6 °C 0.9 °C 1015.0 hPa NW 6.4 km/h 8.7 km/h 37% 0.0 mm CLR
01:55 15.3 °C 1.4 °C 1015.0 hPa WNW 6.4 km/h 7.6 km/h 39% 0.0 mm CLR
02:00 15.1 °C 1.2 °C 1015.0 hPa WNW 4.8 km/h 9.7 km/h 39% 0.0 mm CLR
02:05 14.9 °C 1.4 °C 1015.2 hPa WNW 5.8 km/h 3.7 km/h 40% 0.0 mm CLR
02:10 14.8 °C 1.3 °C 1015.2 hPa WNW 2.9 km/h   40% 0.0 mm CLR
02:15 14.7 °C 1.6 °C 1015.2 hPa WNW 2.9 km/h   41% 0.0 mm CLR
02:20 14.7 °C 1.2 °C 1015.2 hPa Calm   5.6 km/h 40% 0.0 mm CLR
02:25 14.7 °C 1.2 °C 1015.2 hPa Calm   7.4 km/h 40% 0.0 mm CLR
02:30 14.8 °C 1.3 °C 1015.2 hPa West 4.7 km/h 5.6 km/h 40% 0.0 mm CLR
02:35 14.7 °C 1.6 °C 1015.1 hPa West 4.7 km/h 5.8 km/h 41% 0.0 mm CLR
02:40 14.7 °C 1.6 °C 1015.1 hPa SW 4.7 km/h 7.4 km/h 41% 0.0 mm CLR
02:45 14.7 °C 1.6 °C 1015.1 hPa SSW 4.7 km/h 9.5 km/h 41% 0.0 mm CLR
02:50 14.7 °C 1.6 °C 1015.1 hPa SSW 6.9 km/h 7.4 km/h 41% 0.0 mm CLR
02:55 14.7 °C 1.6 °C 1015.1 hPa South 6.9 km/h 7.4 km/h 41% 0.0 mm CLR
03:00 14.7 °C 1.6 °C 1015.1 hPa South 8.0 km/h 12.9 km/h 41% 0.0 mm CLR
03:05 14.6 °C 1.5 °C 1014.9 hPa SW 6.9 km/h 8.7 km/h 41% 0.0 mm CLR
03:10 14.7 °C 1.2 °C 1014.9 hPa SW 6.9 km/h 9.3 km/h 40% 0.0 mm CLR
03:15 14.8 °C 1.3 °C 1014.9 hPa WSW 6.9 km/h 9.3 km/h 40% 0.0 mm CLR
03:20 14.8 °C 1.3 °C 1014.7 hPa West 6.9 km/h 11.1 km/h 40% 0.0 mm CLR
03:25 14.8 °C 1.3 °C 1014.7 hPa WSW 6.9 km/h 16.7 km/h 40% 0.0 mm CLR
03:30 14.8 °C 1.3 °C 1014.7 hPa WSW 7.6 km/h 14.8 km/h 40% 0.0 mm CLR
03:35 14.8 °C 1.3 °C 1014.8 hPa SW 7.6 km/h 9.3 km/h 40% 0.0 mm CLR
03:40 14.8 °C 1.3 °C 1014.8 hPa SW 8.4 km/h 11.1 km/h 40% 0.0 mm CLR
03:45 14.7 °C 1.2 °C 1014.8 hPa SW 8.4 km/h 9.3 km/h 40% 0.0 mm CLR
03:50 14.7 °C 1.6 °C 1014.8 hPa SSW 7.6 km/h 9.5 km/h 41% 0.0 mm CLR
03:55 14.7 °C 1.6 °C 1014.8 hPa SW 7.6 km/h 13.0 km/h 41% 0.0 mm CLR
04:00 14.6 °C 1.4 °C 1014.8 hPa SSW 8.0 km/h 12.9 km/h 41% 0.0 mm CLR
04:05 14.5 °C 1.4 °C 1014.8 hPa SSW 8.4 km/h 9.3 km/h 41% 0.0 mm CLR
04:10 14.6 °C 1.5 °C 1014.8 hPa WSW 8.4 km/h 11.1 km/h 41% 0.0 mm CLR
04:15 14.6 °C 1.5 °C 1014.8 hPa SW 8.4 km/h 9.3 km/h 41% 0.0 mm CLR
04:20 14.5 °C 1.7 °C 1014.9 hPa WNW 6.9 km/h 7.4 km/h 42% 0.0 mm CLR
04:25 14.3 °C 1.6 °C 1014.9 hPa West 6.9 km/h 9.3 km/h 42% 0.0 mm CLR
04:30 13.9 °C 1.5 °C 1014.9 hPa West 5.8 km/h 7.6 km/h 43% 0.0 mm CLR
04:35 13.7 °C 1.3 °C 1014.9 hPa WSW 5.8 km/h 7.6 km/h 43% 0.0 mm CLR
04:40 13.6 °C 1.2 °C 1014.9 hPa WSW 5.8 km/h 11.1 km/h 43% 0.0 mm CLR
04:45 13.5 °C 1.2 °C 1014.9 hPa SW 5.8 km/h 11.1 km/h 43% 0.0 mm CLR
04:50 13.5 °C 1.4 °C 1015.0 hPa WSW 6.4 km/h 7.6 km/h 44% 0.0 mm CLR
04:55 13.6 °C 1.2 °C 1015.0 hPa SSW 6.4 km/h 7.4 km/h 43% 0.0 mm CLR
05:00 13.6 °C 1.2 °C 1015.0 hPa SSW 8.0 km/h 14.5 km/h 43% 0.0 mm CLR
05:05 13.6 °C 1.2 °C 1014.9 hPa SSW 6.4 km/h 7.4 km/h 43% 0.0 mm CLR
05:10 13.5 °C 1.4 °C 1014.9 hPa SW 5.8 km/h 7.4 km/h 44% 0.0 mm CLR
05:15 13.4 °C 1.4 °C 1014.9 hPa SW 5.8 km/h 8.7 km/h 44% 0.0 mm CLR
05:20 13.5 °C 1.4 °C 1014.9 hPa SSW 6.9 km/h 11.1 km/h 44% 0.0 mm CLR
05:25 13.5 °C 1.4 °C 1014.9 hPa SSW 6.9 km/h 9.3 km/h 44% 0.0 mm CLR
05:30 13.6 °C 1.6 °C 1014.9 hPa WSW 6.9 km/h 11.1 km/h 44% 0.0 mm CLR
05:35 13.6 °C 1.6 °C 1014.9 hPa SW 6.9 km/h 9.3 km/h 44% 0.0 mm CLR
05:40 13.6 °C 1.6 °C 1014.9 hPa SSW 6.4 km/h 11.1 km/h 44% 0.0 mm CLR
05:45 13.6 °C 1.6 °C 1014.9 hPa South 6.4 km/h 7.4 km/h 44% 0.0 mm CLR
05:50 13.6 °C 1.6 °C 1014.8 hPa South 5.8 km/h 3.7 km/h 44% 0.0 mm CLR
05:55 13.4 °C 1.7 °C 1014.8 hPa South 5.8 km/h 11.1 km/h 45% 0.0 mm CLR
06:00 13.3 °C 1.6 °C 1014.8 hPa South 4.8 km/h 11.3 km/h 45% 0.0 mm CLR
06:05 13.3 °C 1.6 °C 1014.8 hPa SW 5.0 km/h 7.4 km/h 45% 0.0 mm CLR
06:10 13.3 °C 1.9 °C 1014.8 hPa SSW 6.4 km/h 9.3 km/h 46% 0.0 mm CLR
06:15 13.4 °C 2.0 °C 1014.8 hPa SSW 6.4 km/h 6.4 km/h 46% 0.0 mm CLR
06:20 13.4 °C 2.0 °C 1014.9 hPa South 5.8 km/h 7.6 km/h 46% 0.0 mm CLR
06:25 13.3 °C 1.9 °C 1014.9 hPa SSW 5.8 km/h 9.3 km/h 46% 0.0 mm CLR
06:30 13.2 °C 2.1 °C 1014.9 hPa SSW 6.9 km/h 13.0 km/h 47% 0.0 mm CLR
06:35 13.1 °C 2.1 °C 1014.9 hPa SW 6.9 km/h 7.4 km/h 47% 0.0 mm CLR
06:40 13.1 °C 2.1 °C 1014.9 hPa South 6.9 km/h 11.1 km/h 47% 0.0 mm CLR
06:45 13.1 °C 2.1 °C 1014.9 hPa SSW 6.9 km/h 11.1 km/h 47% 0.0 mm CLR
06:50 13.0 °C 1.9 °C 1015.0 hPa SSW 6.9 km/h 9.3 km/h 47% 0.0 mm CLR
06:55 13.0 °C 1.9 °C 1015.0 hPa SSE 6.9 km/h 9.3 km/h 47% 0.0 mm CLR
07:00 12.9 °C 1.8 °C 1015.0 hPa SSW 8.0 km/h 9.7 km/h 47% 0.0 mm CLR
07:05 12.9 °C 2.2 °C 1015.1 hPa South 8.4 km/h 7.4 km/h 48% 0.0 mm CLR
07:10 12.8 °C 2.1 °C 1015.1 hPa South 5.8 km/h 7.4 km/h 48% 0.0 mm CLR
07:15 12.8 °C 2.1 °C 1015.1 hPa South 5.8 km/h 9.3 km/h 48% 0.0 mm CLR
07:20 12.8 °C 2.1 °C 1015.2 hPa South 5.8 km/h 9.3 km/h 48% 0.0 mm CLR
07:25 12.8 °C 2.1 °C 1015.2 hPa South 5.8 km/h 7.4 km/h 48% 0.0 mm CLR
07:30 12.7 °C 2.2 °C 1015.2 hPa SW 5.8 km/h 5.6 km/h 49% 0.0 mm CLR
07:35 12.7 °C 2.2 °C 1015.2 hPa WSW 5.8 km/h 9.3 km/h 49% 0.0 mm CLR
07:40 12.6 °C 2.4 °C 1015.2 hPa West 5.0 km/h 7.4 km/h 50% 0.0 mm CLR
07:45 12.5 °C 2.3 °C 1015.2 hPa WSW 5.0 km/h 11.1 km/h 50% 0.0 mm CLR
07:50 12.4 °C 2.3 °C 1015.4 hPa West 5.0 km/h 7.4 km/h 50% 0.0 mm CLR
07:55 12.4 °C 2.3 °C 1015.4 hPa WSW 5.0 km/h 11.1 km/h 50% 0.0 mm CLR
08:00 12.6 °C 2.4 °C 1015.4 hPa West 8.0 km/h 19.3 km/h 50% 0.0 mm CLR
08:05 12.7 °C 2.6 °C 1015.6 hPa West 7.6 km/h 13.0 km/h 50% 0.0 mm CLR
08:10 12.7 °C 2.6 °C 1015.6 hPa West 8.7 km/h 16.7 km/h 50% 0.0 mm CLR
08:15 12.8 °C 2.3 °C 1015.6 hPa WSW 8.7 km/h 13.0 km/h 49% 0.0 mm CLR
08:20 12.8 °C 2.6 °C 1015.7 hPa NW 10.3 km/h 16.7 km/h 50% 0.0 mm CLR
08:25 12.7 °C 2.6 °C 1015.7 hPa WSW 10.3 km/h 11.1 km/h 50% 0.0 mm CLR
08:30 12.8 °C 2.6 °C 1015.7 hPa WSW 8.7 km/h 11.9 km/h 50% 0.0 mm CLR
08:35 12.8 °C 2.6 °C 1015.9 hPa WSW 8.7 km/h 16.7 km/h 50% 0.0 mm CLR
08:40 12.9 °C 2.4 °C 1015.9 hPa SW 8.4 km/h 14.8 km/h 49% 0.0 mm CLR
08:45 13.1 °C 2.6 °C 1015.9 hPa WSW 8.4 km/h 16.7 km/h 49% 0.0 mm CLR
08:50 13.2 °C 2.7 °C 1016.0 hPa WSW 10.0 km/h 16.7 km/h 49% 0.0 mm CLR
08:55 13.2 °C 2.7 °C 1016.0 hPa WSW 10.0 km/h 14.8 km/h 49% 0.0 mm CLR
09:00 13.3 °C 2.8 °C 1016.0 hPa WSW 11.3 km/h 17.7 km/h 49% 0.0 mm CLR
09:05 13.4 °C 2.9 °C 1015.9 hPa WSW 10.3 km/h 14.8 km/h 49% 0.0 mm CLR
09:10 13.6 °C 2.8 °C 1015.9 hPa WSW 10.0 km/h 14.8 km/h 48% 0.0 mm CLR
09:15 13.7 °C 2.9 °C 1015.9 hPa WSW 10.0 km/h 14.8 km/h 48% 0.0 mm CLR
09:20 13.8 °C 2.9 °C 1015.9 hPa WSW 10.0 km/h 14.8 km/h 48% 0.0 mm CLR
09:25 14.1 °C 2.9 °C 1015.9 hPa West 10.0 km/h 14.8 km/h 47% 0.0 mm CLR
09:30 14.2 °C 3.1 °C 1015.9 hPa West 8.4 km/h 16.7 km/h 47% 0.0 mm CLR
09:35 14.5 °C 3.0 °C 1015.8 hPa SW 8.4 km/h 24.1 km/h 46% 0.0 mm CLR
09:40 14.7 °C 2.9 °C 1015.8 hPa WSW 11.1 km/h 16.7 km/h 45% 0.0 mm CLR
09:45 14.8 °C 2.7 °C 1015.8 hPa SW 11.1 km/h 16.7 km/h 44% 0.0 mm CLR
09:50 14.9 °C 2.7 °C 1015.8 hPa WSW 13.0 km/h 18.5 km/h 44% 0.0 mm CLR
09:55 15.0 °C 2.8 °C 1015.8 hPa WSW 13.0 km/h 16.7 km/h 44% 0.0 mm CLR
10:00 15.1 °C 2.9 °C 1015.8 hPa WSW 9.7 km/h 19.3 km/h 44% 0.0 mm CLR
10:05 15.2 °C 3.0 °C 1015.8 hPa WSW 10.0 km/h 13.0 km/h 44% 0.0 mm CLR
10:10 15.3 °C 3.1 °C 1015.8 hPa WSW 9.5 km/h 13.0 km/h 44% 0.0 mm CLR
10:15 15.4 °C 2.9 °C 1015.8 hPa WSW 9.5 km/h 14.8 km/h 43% 0.0 mm CLR
10:20 15.5 °C 2.9 °C 1015.7 hPa WSW 8.7 km/h 16.7 km/h 43% 0.0 mm CLR
10:25 15.7 °C 2.8 °C 1015.7 hPa South 8.7 km/h 16.7 km/h 42% 0.0 mm CLR
10:30 15.8 °C 2.9 °C 1015.7 hPa SSW 10.0 km/h 14.8 km/h 42% 0.0 mm CLR
10:35 15.8 °C 2.9 °C 1015.7 hPa SSE 10.0 km/h 11.1 km/h 42% 0.0 mm CLR
10:40 15.9 °C 2.7 °C 1015.7 hPa WSW 9.5 km/h 14.8 km/h 41% 0.0 mm CLR
10:45 16.1 °C 2.8 °C 1015.7 hPa WNW 9.5 km/h 9.3 km/h 41% 0.0 mm CLR
10:50 16.4 °C 2.8 °C 1015.8 hPa West 8.4 km/h 18.5 km/h 40% 0.0 mm CLR
10:55 16.6 °C 2.6 °C 1015.8 hPa WNW 8.4 km/h 20.4 km/h 39% 0.0 mm CLR
11:00 16.6 °C 2.2 °C 1015.8 hPa WNW 12.9 km/h 25.7 km/h 38% 0.0 mm CLR
11:05 16.7 °C 2.3 °C 1016.0 hPa NNW 13.7 km/h 20.4 km/h 38% 0.0 mm CLR
11:10 16.8 °C 2.4 °C 1016.0 hPa WNW 11.1 km/h 14.8 km/h 38% 0.0 mm CLR
11:15 16.8 °C 2.0 °C 1016.0 hPa NNW 11.1 km/h 20.4 km/h 37% 0.0 mm CLR
11:20 16.9 °C 2.5 °C 1016.0 hPa NNW 13.0 km/h 18.5 km/h 38% 0.0 mm CLR
11:25 17.1 °C 2.3 °C 1016.0 hPa WNW 13.0 km/h 19.0 km/h 37% 0.0 mm CLR
11:30 16.9 °C 2.1 °C 1016.0 hPa WNW 14.0 km/h 22.2 km/h 37% 0.0 mm CLR
11:35 17.1 °C 2.3 °C 1015.8 hPa West 14.0 km/h 24.1 km/h 37% 0.0 mm CLR
11:40 17.3 °C 2.1 °C 1015.8 hPa NNW 16.1 km/h 22.2 km/h 36% 0.0 mm CLR
11:45 17.3 °C 1.7 °C 1015.8 hPa NW 16.1 km/h 29.6 km/h 35% 0.0 mm CLR
11:50 17.3 °C 2.1 °C 1015.9 hPa NW 16.4 km/h 25.9 km/h 36% 0.0 mm CLR
11:55 17.4 °C 2.2 °C 1015.9 hPa West 16.4 km/h 24.1 km/h 36% 0.0 mm CLR
12:00 17.4 °C 2.2 °C 1015.9 hPa NW 19.3 km/h 29.0 km/h 36% 0.0 mm CLR
12:05 17.5 °C 1.8 °C 1015.7 hPa WNW 18.0 km/h 33.3 km/h 35% 0.0 mm CLR
12:10 17.7 °C 2.4 °C 1015.7 hPa West 18.3 km/h 25.9 km/h 36% 0.0 mm CLR
12:15 18.0 °C 2.3 °C 1015.7 hPa NNW 18.3 km/h 22.2 km/h 35% 0.0 mm CLR
12:20 18.0 °C 1.9 °C 1015.6 hPa NW 17.2 km/h 27.8 km/h 34% 0.0 mm CLR
12:25 17.9 °C 1.8 °C 1015.6 hPa WNW 17.2 km/h 29.6 km/h 34% 0.0 mm CLR
12:30 18.1 °C 2.4 °C 1015.6 hPa NW 19.8 km/h 31.5 km/h 35% 0.0 mm CLR
12:35 18.2 °C 2.1 °C 1015.4 hPa WNW 19.8 km/h 29.6 km/h 34% 0.0 mm CLR
12:40 18.4 °C 1.8 °C 1015.4 hPa West 16.4 km/h 33.5 km/h 33% 0.0 mm CLR
12:45 18.4 °C 1.4 °C 1015.4 hPa WNW 16.4 km/h 27.8 km/h 32% 0.0 mm CLR
12:50 18.6 °C 1.6 °C 1015.3 hPa NW 19.8 km/h 18.5 km/h 32% 0.0 mm CLR
12:55 18.9 °C 1.4 °C 1015.3 hPa NW 19.8 km/h 31.5 km/h 31% 0.0 mm CLR
13:00 18.9 °C 0.9 °C 1015.3 hPa WNW 16.1 km/h 35.4 km/h 30% 0.0 mm CLR
13:05 18.8 °C 0.8 °C 1015.1 hPa WNW 17.2 km/h 35.2 km/h 30% 0.0 mm CLR
13:10 19.1 °C 1.1 °C 1015.1 hPa WNW 22.5 km/h 33.3 km/h 30% 0.0 mm CLR
13:15 19.2 °C 0.7 °C 1015.1 hPa West 22.5 km/h 31.5 km/h 29% 0.0 mm CLR
13:20 19.2 °C 1.2 °C 1015.0 hPa SW 18.3 km/h 33.3 km/h 30% 0.0 mm CLR
13:25 19.4 °C 0.9 °C 1015.0 hPa West 18.3 km/h 38.9 km/h 29% 0.0 mm CLR
13:30 19.6 °C 1.1 °C 1015.0 hPa WNW 19.0 km/h 29.6 km/h 29% 0.0 mm CLR
13:35 19.5 °C 1.0 °C 1014.9 hPa NW 19.0 km/h 25.9 km/h 29% 0.0 mm CLR
13:40 19.8 °C 1.2 °C 1014.9 hPa NW 18.0 km/h 29.6 km/h 29% 0.0 mm CLR
13:45 19.8 °C 1.2 °C 1014.9 hPa NW 18.0 km/h 35.2 km/h 29% 0.0 mm CLR
13:50 19.8 °C 1.2 °C 1014.9 hPa WNW 20.1 km/h 22.2 km/h 29% 0.0 mm CLR
13:55 19.9 °C 1.3 °C 1014.9 hPa WNW 20.1 km/h 37.8 km/h 29% 0.0 mm CLR
14:00 19.9 °C 1.3 °C 1014.9 hPa NW 22.5 km/h 38.6 km/h 29% 0.0 mm CLR
14:05 20.0 °C 0.9 °C 1014.7 hPa NW 22.5 km/h 29.6 km/h 28% 0.0 mm CLR
14:10 20.2 °C 1.6 °C 1014.7 hPa North 18.3 km/h 31.7 km/h 29% 0.0 mm CLR
14:15 20.4 °C 1.3 °C 1014.7 hPa NW 18.3 km/h 27.8 km/h 28% 0.0 mm CLR
14:20 20.6 °C 1.4 °C 1014.6 hPa West 17.2 km/h 22.2 km/h 28% 0.0 mm CLR
14:25 20.6 °C 0.9 °C 1014.6 hPa WNW 17.2 km/h 31.5 km/h 27% 0.0 mm CLR
14:30 20.5 °C 1.8 °C 1014.6 hPa NW 16.4 km/h 18.5 km/h 29% 0.0 mm CLR
14:35 20.7 °C 1.5 °C 1014.5 hPa WNW 16.4 km/h 22.2 km/h 28% 0.0 mm CLR
14:40 21.1 °C 1.3 °C 1014.5 hPa West 13.0 km/h 35.2 km/h 27% 0.0 mm CLR
14:45 21.1 °C 0.8 °C 1014.5 hPa West 13.0 km/h 24.1 km/h 26% 0.0 mm CLR
14:50 21.1 °C 0.3 °C 1014.4 hPa WNW 18.0 km/h 24.1 km/h 25% 0.0 mm CLR
14:55 21.1 °C 0.3 °C 1014.4 hPa West 18.0 km/h 31.5 km/h 25% 0.0 mm CLR
15:00 21.4 °C 0.6 °C 1014.4 hPa West 19.3 km/h 37.0 km/h 25% 0.0 mm CLR
15:05 21.5 °C 0.1 °C 1014.2 hPa West 18.3 km/h 35.2 km/h 24% 0.0 mm CLR
15:10 21.3 °C -0.1 °C 1014.2 hPa West 19.8 km/h 18.5 km/h 24% 0.0 mm CLR
15:15 21.4 °C 0.0 °C 1014.2 hPa West 19.8 km/h 29.6 km/h 24% 0.0 mm CLR
15:20 21.3 °C -0.1 °C 1014.2 hPa West 16.4 km/h 24.1 km/h 24% 0.0 mm CLR
15:25 21.4 °C 0.0 °C 1014.2 hPa SW 16.4 km/h 11.1 km/h 24% 0.0 mm CLR
15:30 21.8 °C 0.3 °C 1014.2 hPa NNW 13.7 km/h 27.8 km/h 24% 0.0 mm CLR
15:35 21.8 °C -0.3 °C 1013.9 hPa North 13.7 km/h 26.2 km/h 23% 0.0 mm CLR
15:40 21.9 °C 0.4 °C 1013.9 hPa NW 16.4 km/h 22.2 km/h 24% 0.0 mm CLR
15:45 22.2 °C 0.1 °C 1013.9 hPa NNW 16.4 km/h 24.1 km/h 23% 0.0 mm CLR
15:50 22.1 °C 0.0 °C 1013.8 hPa NW 16.4 km/h 24.5 km/h 23% 0.0 mm CLR
15:55 22.2 °C 0.1 °C 1013.8 hPa West 16.4 km/h 30.6 km/h 23% 0.0 mm CLR
16:00 22.0 °C -0.1 °C 1013.8 hPa WNW 14.5 km/h 32.2 km/h 23% 0.0 mm CLR
16:05 22.2 °C -0.6 °C 1013.6 hPa North 15.6 km/h 20.4 km/h 22% 0.0 mm CLR
16:10 22.3 °C -0.4 °C 1013.6 hPa WSW 17.2 km/h 20.4 km/h 22% 0.0 mm CLR
16:15 22.2 °C -0.6 °C 1013.6 hPa WNW 17.2 km/h 33.3 km/h 22% 0.0 mm CLR
16:20 21.9 °C -0.2 °C 1013.4 hPa WNW 20.1 km/h 31.7 km/h 23% 0.0 mm CLR
16:25 22.0 °C -0.1 °C 1013.4 hPa WNW 20.1 km/h 22.2 km/h 23% 0.0 mm CLR
16:30 22.1 °C -0.6 °C 1013.4 hPa NNW 19.0 km/h 20.4 km/h 22% 0.0 mm CLR
16:35 22.3 °C -0.4 °C 1013.2 hPa NW 19.0 km/h 24.1 km/h 22% 0.0 mm CLR
16:40 22.5 °C -0.3 °C 1013.2 hPa WNW 14.0 km/h 27.8 km/h 22% 0.0 mm CLR
16:45 22.4 °C -0.4 °C 1013.2 hPa NW 14.0 km/h 18.5 km/h 22% 0.0 mm CLR
16:50 22.6 °C -0.2 °C 1013.0 hPa West 15.6 km/h 31.5 km/h 22% 0.0 mm CLR
16:55 22.7 °C -0.1 °C 1013.0 hPa NNW 15.6 km/h 25.9 km/h 22% 0.0 mm CLR
17:00 22.3 °C -0.4 °C 1013.0 hPa NNW 16.1 km/h 33.8 km/h 22% 0.0 mm CLR
17:05 22.5 °C -0.3 °C 1012.9 hPa WNW 16.4 km/h 22.2 km/h 22% 0.0 mm CLR
17:10 22.6 °C -0.2 °C 1012.9 hPa NNW 16.4 km/h 38.9 km/h 22% 0.0 mm CLR
17:15 22.6 °C -0.2 °C 1012.9 hPa WNW 16.4 km/h 25.9 km/h 22% 0.0 mm CLR
17:20 22.8 °C -0.1 °C 1013.0 hPa NNW 16.1 km/h 22.2 km/h 22% 0.0 mm CLR
17:25 22.8 °C -0.1 °C 1013.0 hPa NW 16.1 km/h 27.8 km/h 22% 0.0 mm CLR
17:30 22.7 °C -0.8 °C 1013.0 hPa North 14.8 km/h 22.2 km/h 21% 0.0 mm CLR
17:35 22.7 °C -1.4 °C 1013.1 hPa North 14.8 km/h 29.6 km/h 20% 0.0 mm CLR
17:40 22.7 °C -0.8 °C 1013.1 hPa West 13.0 km/h 25.9 km/h 21% 0.0 mm CLR
17:45 22.7 °C -0.8 °C 1013.1 hPa NW 13.0 km/h 20.4 km/h 21% 0.0 mm CLR
17:50 22.8 °C -0.1 °C 1013.1 hPa WNW 14.8 km/h 24.1 km/h 22% 0.0 mm CLR
17:55 22.8 °C -0.1 °C 1013.1 hPa North 14.8 km/h 24.1 km/h 22% 0.0 mm CLR
18:00 22.8 °C -0.7 °C 1013.1 hPa NNW 14.5 km/h 29.0 km/h 21% 0.0 mm CLR
18:05 22.8 °C -0.1 °C 1013.0 hPa NNW 14.0 km/h 24.1 km/h 22% 0.0 mm CLR
18:10 22.7 °C -0.1 °C 1013.0 hPa North 11.9 km/h 24.1 km/h 22% 0.0 mm CLR
18:15 22.7 °C 1.1 °C 1013.0 hPa North 11.9 km/h 20.4 km/h 24% 0.0 mm CLR
18:20 22.2 °C 2.8 °C 1013.0 hPa NNE 13.0 km/h 22.2 km/h 28% 0.0 mm CLR
18:25 21.7 °C 2.9 °C 1013.0 hPa NE 13.0 km/h 29.6 km/h 29% 0.0 mm CLR
18:30 21.6 °C 3.3 °C 1013.0 hPa ENE 16.1 km/h 16.7 km/h 30% 0.0 mm CLR
18:35 21.7 °C 2.9 °C 1013.1 hPa NE 16.1 km/h 18.5 km/h 29% 0.0 mm CLR
18:40 21.6 °C 5.1 °C 1013.1 hPa North 14.0 km/h 16.7 km/h 34% 0.0 mm CLR
18:45 21.6 °C 5.5 °C 1013.1 hPa NE 14.0 km/h 16.7 km/h 35% 0.0 mm CLR
18:50 21.5 °C 4.6 °C 1013.0 hPa ENE 13.0 km/h 13.0 km/h 33% 0.0 mm CLR
18:55 21.6 °C 4.6 °C 1013.0 hPa NE 13.0 km/h 18.5 km/h 33% 0.0 mm CLR
19:00 21.6 °C 4.6 °C 1013.0 hPa NE 11.3 km/h 19.3 km/h 33% 0.0 mm CLR
19:05 21.4 °C 4.4 °C 1013.0 hPa NE 11.9 km/h 20.4 km/h 33% 0.0 mm CLR
19:10 21.5 °C 4.1 °C 1013.0 hPa ENE 11.9 km/h 19.0 km/h 32% 0.0 mm CLR
19:15 21.3 °C 3.9 °C 1013.0 hPa NE 11.9 km/h 22.2 km/h 32% 0.0 mm CLR
19:20 21.1 °C 3.8 °C 1013.1 hPa NE 14.8 km/h 16.7 km/h 32% 0.0 mm CLR
19:25 21.2 °C 3.8 °C 1013.1 hPa East 14.8 km/h 20.4 km/h 32% 0.0 mm CLR
19:30 21.2 °C 3.8 °C 1013.1 hPa NE 11.1 km/h 14.8 km/h 32% 0.0 mm CLR
19:35 21.2 °C 4.3 °C 1013.2 hPa NNE 11.1 km/h 16.7 km/h 33% 0.0 mm CLR
19:40 21.1 °C 4.2 °C 1013.2 hPa NE 10.3 km/h 18.5 km/h 33% 0.0 mm CLR
19:45 20.9 °C 4.4 °C 1013.2 hPa NE 10.3 km/h 12.2 km/h 34% 0.0 mm CLR
19:50 20.8 °C 4.8 °C 1013.3 hPa NNE 10.0 km/h 14.8 km/h 35% 0.0 mm CLR
19:55 20.6 °C 4.6 °C 1013.3 hPa NNE 10.0 km/h 11.1 km/h 35% 0.0 mm CLR
20:00 20.4 °C 4.4 °C 1013.3 hPa NNE 11.3 km/h 19.3 km/h 35% 0.0 mm CLR
20:05 20.3 °C 5.1 °C 1013.4 hPa NE 10.3 km/h 11.1 km/h 37% 0.0 mm CLR
20:10 20.2 °C 5.4 °C 1013.4 hPa NNE 7.6 km/h 9.3 km/h 38% 0.0 mm CLR
20:15 20.1 °C 5.7 °C 1013.4 hPa NNE 7.6 km/h 11.1 km/h 39% 0.0 mm CLR
20:20 20.1 °C 5.3 °C 1013.6 hPa ESE 8.4 km/h 9.3 km/h 38% 0.0 mm CLR
20:25 19.8 °C 4.7 °C 1013.6 hPa East 8.4 km/h 14.8 km/h 37% 0.0 mm CLR
20:30 19.6 °C 4.5 °C 1013.6 hPa ESE 8.7 km/h 14.8 km/h 37% 0.0 mm CLR
20:35 19.4 °C 4.7 °C 1013.6 hPa SE 8.7 km/h 22.0 km/h 38% 0.0 mm CLR
20:40 19.2 °C 4.5 °C 1013.6 hPa ESE 10.3 km/h 18.5 km/h 38% 0.0 mm CLR
20:45 19.0 °C 4.7 °C 1013.6 hPa ESE 10.3 km/h 14.8 km/h 39% 0.0 mm CLR
20:50 18.9 °C 4.6 °C 1013.9 hPa East 10.0 km/h 3.7 km/h 39% 0.0 mm CLR
20:55 18.8 °C 4.9 °C 1013.9 hPa NW 10.0 km/h 5.6 km/h 40% 0.0 mm CLR
21:00 18.7 °C 4.8 °C 1013.9 hPa NE 3.2 km/h 12.9 km/h 40% 0.0 mm CLR
21:05 18.4 °C 4.6 °C 1014.3 hPa NE 3.9 km/h 16.7 km/h 40% 0.0 mm CLR
21:10 18.3 °C 5.2 °C 1014.3 hPa NNE 8.7 km/h 11.1 km/h 42% 0.0 mm CLR
21:15 18.2 °C 7.9 °C 1014.3 hPa NE 8.7 km/h 11.1 km/h 51% 0.0 mm CLR
21:20 17.8 °C 9.2 °C 1014.6 hPa ENE 8.7 km/h 14.8 km/h 57% 0.0 mm CLR
21:25 17.4 °C 9.8 °C 1014.6 hPa NE 8.7 km/h 16.7 km/h 61% 0.0 mm CLR
21:30 17.1 °C 10.0 °C 1014.6 hPa NE 9.5 km/h 14.8 km/h 63% 0.0 mm CLR
21:35 16.9 °C 10.3 °C 1014.9 hPa NE 9.5 km/h 13.0 km/h 65% 0.0 mm CLR
21:40 16.7 °C 10.3 °C 1014.9 hPa NNE 8.4 km/h 14.8 km/h 66% 0.0 mm CLR
21:45 16.4 °C 10.5 °C 1014.9 hPa NE 8.4 km/h 17.2 km/h 68% 0.0 mm CLR
21:50 16.2 °C 10.7 °C 1015.1 hPa NE 10.0 km/h 14.8 km/h 70% 0.0 mm CLR
21:55 15.9 °C 10.8 °C 1015.1 hPa NE 10.0 km/h 11.1 km/h 72% 0.0 mm CLR
22:00 15.8 °C 10.9 °C 1015.1 hPa NE 9.7 km/h 19.3 km/h 73% 0.0 mm CLR
22:05 15.7 °C 11.1 °C 1015.2 hPa NE 10.0 km/h 16.7 km/h 74% 0.0 mm CLR
22:10 15.6 °C 11.2 °C 1015.2 hPa North 9.5 km/h 11.1 km/h 75% 0.0 mm CLR
22:15 15.4 °C 11.2 °C 1015.2 hPa ENE 9.5 km/h 16.7 km/h 76% 0.0 mm CLR
22:20 15.3 °C 11.3 °C 1015.5 hPa NE 9.5 km/h 13.0 km/h 77% 0.0 mm CLR
22:25 15.2 °C 11.2 °C 1015.5 hPa NE 9.5 km/h 14.8 km/h 77% 0.0 mm CLR
22:30 15.1 °C 11.3 °C 1015.5 hPa NNE 10.0 km/h 13.0 km/h 78% 0.0 mm CLR
22:35 14.9 °C 11.1 °C 1015.5 hPa NNE 10.0 km/h 13.0 km/h 78% 0.0 mm CLR
22:40 14.9 °C 11.1 °C 1015.5 hPa NE 8.7 km/h 11.1 km/h 78% 0.0 mm CLR
22:45 14.8 °C 11.0 °C 1015.5 hPa NNE 8.7 km/h 11.1 km/h 78% 0.0 mm CLR
22:50 14.7 °C 10.9 °C 1015.7 hPa NNE 6.9 km/h 11.1 km/h 78% 0.0 mm CLR
22:55 14.7 °C 10.9 °C 1015.7 hPa NNE 6.9 km/h 5.8 km/h 78% 0.0 mm CLR
23:00 14.7 °C 10.8 °C 1015.7 hPa NNE 4.8 km/h 9.7 km/h 78% 0.0 mm CLR
23:05 14.6 °C 10.8 °C 1015.8 hPa NE 5.8 km/h 7.4 km/h 78% 0.0 mm CLR
23:10 14.6 °C 10.8 °C 1015.8 hPa NE 3.2 km/h 7.4 km/h 78% 0.0 mm CLR
23:15 14.6 °C 10.8 °C 1015.8 hPa NW 3.2 km/h 5.8 km/h 78% 0.0 mm CLR
23:20 14.5 °C 10.7 °C 1015.8 hPa NNE 3.2 km/h 5.6 km/h 78% 0.0 mm CLR
23:25 14.4 °C 10.6 °C 1015.8 hPa NNW 3.2 km/h 5.6 km/h 78% 0.0 mm CLR
23:30 14.4 °C 10.6 °C 1015.8 hPa NE 3.9 km/h 5.6 km/h 78% 0.0 mm CLR
23:35 14.3 °C 10.5 °C 1015.8 hPa NW 3.9 km/h 7.4 km/h 78% 0.0 mm CLR
23:40 14.2 °C 10.2 °C 1015.8 hPa NW 4.7 km/h 5.6 km/h 77% 0.0 mm CLR
23:45 14.2 °C 10.2 °C 1015.8 hPa NW 4.7 km/h 7.4 km/h 77% 0.0 mm CLR
23:50 14.2 °C 10.2 °C 1015.9 hPa NW 3.9 km/h 3.7 km/h 77% 0.0 mm CLR
23:55 14.1 °C 10.1 °C 1015.9 hPa NNW 3.9 km/h 7.4 km/h 77% 0.0 mm CLR
Murcia-Puente Tocinos, España
Compliments of Weather Underground - 2.75 mb

La estación de MeteoMurcia.com, publica sus datos en los siguientes proyectos:

Weather Underground PWS IMURCIAP2 Meteoclimatic www.awekas.at

W3Counter
Web Analytics